Time,TemperatureF,DewpointF,PressureIn,WindDirection,WindDirectionDegrees,WindSpeedMPH,WindSpeedGustMPH,Humidity,HourlyPrecipIn,Conditions,Clouds,dailyrainin,SolarRadiationWatts/m^2,SoftwareType,DateUTC
2013-09-07 00:04:00,67.8,66.3,30.07,NNE,20,0.0,0.0,95,0.00,,,0.00,0,Wunderground v.1.15,2013-09-07 05:04:00,
2013-09-07 00:13:00,67.7,66.5,30.08,NNE,20,0.0,0.0,96,0.00,,,0.00,0,Wunderground v.1.15,2013-09-07 05:13:00,
2013-09-07 00:19:00,67.7,66.5,30.08,NNE,20,0.0,0.0,96,0.00,,,0.00,0,Wunderground v.1.15,2013-09-07 05:19:00,
2013-09-07 00:28:00,67.7,66.5,30.08,NNE,20,0.0,0.0,96,0.00,,,0.00,0,Wunderground v.1.15,2013-09-07 05:28:00,
2013-09-07 00:34:00,67.6,66.4,30.08,NNE,20,0.0,0.0,96,0.00,,,0.00,0,Wunderground v.1.15,2013-09-07 05:34:00,
2013-09-07 00:43:00,67.6,66.4,30.08,NNE,20,0.0,0.0,96,0.00,,,0.00,0,Wunderground v.1.15,2013-09-07 05:43:00,
2013-09-07 00:49:00,67.8,66.6,30.08,NNE,20,0.0,0.0,96,0.00,,,0.00,0,Wunderground v.1.15,2013-09-07 05:49:00,
2013-09-07 00:58:00,67.8,66.6,30.08,NNE,20,0.0,0.0,96,0.00,,,0.00,0,Wunderground v.1.15,2013-09-07 05:58:00,
2013-09-07 01:04:00,67.9,66.7,30.08,NNE,20,0.0,0.0,96,0.00,,,0.00,0,Wunderground v.1.15,2013-09-07 06:04:00,
2013-09-07 01:14:00,67.9,67.0,30.08,NNE,20,0.0,0.0,97,0.00,,,0.00,0,Wunderground v.1.15,2013-09-07 06:14:00,
2013-09-07 01:19:00,67.8,66.9,30.07,NNE,20,0.0,0.0,97,0.00,,,0.00,0,Wunderground v.1.15,2013-09-07 06:19:00,
2013-09-07 01:29:00,67.6,66.7,30.07,NNE,20,0.0,0.0,97,0.00,,,0.00,0,Wunderground v.1.15,2013-09-07 06:29:00,
2013-09-07 01:34:00,67.6,66.7,30.07,NNE,20,0.0,0.0,97,0.00,,,0.00,0,Wunderground v.1.15,2013-09-07 06:34:00,
2013-09-07 01:43:00,67.9,67.0,30.07,NNE,20,0.0,0.0,97,0.00,,,0.00,0,Wunderground v.1.15,2013-09-07 06:43:00,
2013-09-07 01:49:00,67.9,67.0,30.07,NNE,20,0.0,0.0,97,0.00,,,0.00,0,Wunderground v.1.15,2013-09-07 06:49:00,
2013-09-07 01:59:00,68.0,67.4,30.07,NNE,20,0.0,0.0,98,0.00,,,0.00,0,Wunderground v.1.15,2013-09-07 06:59:00,
2013-09-07 02:09:00,68.3,67.7,30.07,NNE,20,0.0,0.0,98,0.00,,,0.00,0,Wunderground v.1.15,2013-09-07 07:09:00,
2013-09-07 02:18:00,68.1,67.5,30.06,NNE,20,0.0,0.0,98,0.00,,,0.00,0,Wunderground v.1.15,2013-09-07 07:18:00,
2013-09-07 02:24:00,68.0,67.4,30.06,NNE,20,0.0,0.0,98,0.00,,,0.00,0,Wunderground v.1.15,2013-09-07 07:24:00,
2013-09-07 02:33:00,67.9,67.3,30.06,NNE,20,0.0,0.0,98,0.00,,,0.00,0,Wunderground v.1.15,2013-09-07 07:33:00,
2013-09-07 02:39:00,67.8,67.2,30.06,NNE,20,0.0,0.0,98,0.00,,,0.00,0,Wunderground v.1.15,2013-09-07 07:39:00,
2013-09-07 02:49:00,67.9,67.3,30.06,NNE,20,0.0,0.0,98,0.00,,,0.00,0,Wunderground v.1.15,2013-09-07 07:49:00,
2013-09-07 02:58:00,67.7,67.1,30.06,NNE,20,0.0,0.0,98,0.00,,,0.00,0,Wunderground v.1.15,2013-09-07 07:58:00,
2013-09-07 03:04:00,67.6,67.0,30.06,NNE,20,0.0,0.0,98,0.00,,,0.00,0,Wunderground v.1.15,2013-09-07 08:04:00,
2013-09-07 03:14:00,68.0,67.4,30.07,NNE,20,0.0,0.0,98,0.00,,,0.00,0,Wunderground v.1.15,2013-09-07 08:14:00,
2013-09-07 03:24:00,68.6,68.0,30.07,NNE,22,0.0,0.0,98,0.00,,,0.00,0,Wunderground v.1.15,2013-09-07 08:24:00,
2013-09-07 03:34:00,69.0,68.4,30.07,East,86,0.0,0.0,98,0.00,,,0.00,0,Wunderground v.1.15,2013-09-07 08:34:00,
2013-09-07 03:44:00,69.1,68.5,30.07,East,86,0.0,0.0,98,0.00,,,0.00,0,Wunderground v.1.15,2013-09-07 08:44:00,
2013-09-07 03:54:00,69.2,68.9,30.07,East,86,0.0,0.0,99,0.00,,,0.00,0,Wunderground v.1.15,2013-09-07 08:54:00,
2013-09-07 03:59:00,69.2,68.9,30.07,East,86,0.0,0.0,99,0.00,,,0.00,0,Wunderground v.1.15,2013-09-07 08:59:00,
2013-09-07 04:08:00,69.1,68.5,30.07,East,86,0.0,0.0,98,0.00,,,0.00,0,Wunderground v.1.15,2013-09-07 09:08:00,
2013-09-07 04:14:00,68.9,68.3,30.07,East,86,0.0,0.0,98,0.00,,,0.00,0,Wunderground v.1.15,2013-09-07 09:14:00,
2013-09-07 04:23:00,68.7,68.4,30.06,East,86,0.0,0.0,99,0.00,,,0.00,0,Wunderground v.1.15,2013-09-07 09:23:00,
2013-09-07 04:29:00,68.6,68.3,30.07,East,86,0.0,0.0,99,0.00,,,0.00,0,Wunderground v.1.15,2013-09-07 09:29:00,
2013-09-07 04:38:00,68.2,67.6,30.07,East,86,0.0,0.0,98,0.00,,,0.00,0,Wunderground v.1.15,2013-09-07 09:38:00,
2013-09-07 04:44:00,68.1,67.8,30.07,East,87,0.0,0.0,99,0.00,,,0.00,0,Wunderground v.1.15,2013-09-07 09:44:00,
2013-09-07 04:54:00,68.0,67.7,30.07,East,87,0.0,0.0,99,0.00,,,0.00,0,Wunderground v.1.15,2013-09-07 09:54:00,
2013-09-07 05:03:00,67.8,67.2,30.07,East,86,0.0,0.0,98,0.00,,,0.00,0,Wunderground v.1.15,2013-09-07 10:03:00,
2013-09-07 05:09:00,67.6,67.0,30.07,East,86,0.0,0.0,98,0.00,,,0.00,0,Wunderground v.1.15,2013-09-07 10:09:00,
2013-09-07 05:18:00,67.4,67.1,30.08,East,87,0.0,0.0,99,0.00,,,0.00,0,Wunderground v.1.15,2013-09-07 10:18:00,
2013-09-07 05:24:00,67.4,67.1,30.08,East,87,0.0,0.0,99,0.00,,,0.00,0,Wunderground v.1.15,2013-09-07 10:24:00,
2013-09-07 05:33:00,67.3,67.0,30.08,East,87,0.0,0.0,99,0.00,,,0.00,0,Wunderground v.1.15,2013-09-07 10:33:00,
2013-09-07 05:39:00,67.2,66.9,30.08,East,86,0.0,0.0,99,0.00,,,0.00,0,Wunderground v.1.15,2013-09-07 10:39:00,
2013-09-07 05:49:00,67.1,66.8,30.08,East,86,0.0,0.0,99,0.00,,,0.00,0,Wunderground v.1.15,2013-09-07 10:49:00,
2013-09-07 05:58:00,67.4,67.1,30.08,East,88,0.0,0.0,99,0.00,,,0.00,0,Wunderground v.1.15,2013-09-07 10:58:00,
2013-09-07 06:04:00,67.5,67.2,30.08,East,88,0.0,0.0,99,0.00,,,0.00,0,Wunderground v.1.15,2013-09-07 11:04:00,
2013-09-07 06:14:00,67.7,67.4,30.08,East,88,0.0,0.0,99,0.00,,,0.00,0,Wunderground v.1.15,2013-09-07 11:14:00,
2013-09-07 06:23:00,67.9,67.6,30.09,East,88,0.0,0.0,99,0.00,,,0.00,5,Wunderground v.1.15,2013-09-07 11:23:00,
2013-09-07 06:29:00,67.9,67.6,30.09,East,88,0.0,0.0,99,0.00,,,0.00,9,Wunderground v.1.15,2013-09-07 11:29:00,
2013-09-07 06:39:00,67.5,67.2,30.09,East,88,0.0,0.0,99,0.00,,,0.00,18,Wunderground v.1.15,2013-09-07 11:39:00,
2013-09-07 06:49:00,67.5,67.2,30.09,East,88,0.0,0.0,99,0.00,,,0.00,32,Wunderground v.1.15,2013-09-07 11:49:00,
2013-09-07 06:58:00,67.7,67.4,30.09,East,88,0.0,0.0,99,0.00,,,0.00,49,Wunderground v.1.15,2013-09-07 11:58:00,
2013-09-07 07:09:00,68.1,67.8,30.09,East,88,0.0,0.0,99,0.00,,,0.00,72,Wunderground v.1.15,2013-09-07 12:09:00,
2013-09-07 07:19:00,68.4,68.1,30.09,East,88,0.0,0.0,99,0.00,,,0.00,105,Wunderground v.1.15,2013-09-07 12:19:00,
2013-09-07 07:28:00,69.2,68.9,30.09,East,88,0.0,0.0,99,0.00,,,0.00,135,Wunderground v.1.15,2013-09-07 12:28:00,
2013-09-07 07:34:00,69.4,69.1,30.09,East,88,0.0,0.0,99,0.00,,,0.00,153,Wunderground v.1.15,2013-09-07 12:34:00,
2013-09-07 07:44:00,69.6,69.3,30.09,East,88,0.0,0.0,99,0.00,,,0.00,188,Wunderground v.1.15,2013-09-07 12:44:00,
2013-09-07 07:54:00,70.1,69.8,30.09,ENE,63,0.0,0.0,99,0.00,,,0.00,216,Wunderground v.1.15,2013-09-07 12:54:00,
2013-09-07 08:03:00,70.3,70.0,30.10,ENE,74,1.0,2.0,99,0.00,,,0.00,244,Wunderground v.1.15,2013-09-07 13:03:00,
2013-09-07 08:09:00,70.5,70.2,30.10,ENE,74,1.0,2.0,99,0.00,,,0.00,260,Wunderground v.1.15,2013-09-07 13:09:00,
2013-09-07 08:19:00,71.3,71.0,30.10,NE,48,1.0,1.0,99,0.00,,,0.00,295,Wunderground v.1.15,2013-09-07 13:19:00,
2013-09-07 08:29:00,72.1,70.9,30.10,East,91,1.0,3.0,96,0.00,,,0.00,332,Wunderground v.1.15,2013-09-07 13:29:00,
2013-09-07 08:39:00,73.0,70.9,30.10,ENE,78,1.0,1.0,93,0.00,,,0.00,369,Wunderground v.1.15,2013-09-07 13:39:00,
2013-09-07 08:49:00,73.9,71.1,30.11,ENE,74,1.0,2.0,91,0.00,,,0.00,401,Wunderground v.1.15,2013-09-07 13:49:00,
2013-09-07 08:58:00,74.8,72.0,30.11,ESE,111,1.0,2.0,91,0.00,,,0.00,436,Wunderground v.1.15,2013-09-07 13:58:00,
2013-09-07 09:04:00,75.2,71.1,30.11,SE,139,1.0,3.0,87,0.00,,,0.00,455,Wunderground v.1.15,2013-09-07 14:04:00,
2013-09-07 09:13:00,76.0,71.5,30.10,East,99,2.0,2.0,86,0.00,,,0.00,483,Wunderground v.1.15,2013-09-07 14:13:00,
2013-09-07 09:19:00,76.7,72.5,30.10,SE,144,2.0,2.0,87,0.00,,,0.00,504,Wunderground v.1.15,2013-09-07 14:19:00,
2013-09-07 09:29:00,77.5,71.9,30.10,SE,133,2.0,4.0,83,0.00,,,0.00,538,Wunderground v.1.15,2013-09-07 14:29:00,
2013-09-07 09:39:00,78.1,71.4,30.11,SE,135,3.0,4.0,80,0.00,,,0.00,570,Wunderground v.1.15,2013-09-07 14:39:00,
2013-09-07 09:49:00,78.3,72.0,30.11,South,170,3.0,4.0,81,0.00,,,0.00,599,Wunderground v.1.15,2013-09-07 14:49:00,
2013-09-07 09:58:00,78.8,71.0,30.11,SE,137,3.0,4.0,77,0.00,,,0.00,626,Wunderground v.1.15,2013-09-07 14:58:00,
2013-09-07 10:04:00,78.9,71.5,30.11,South,184,2.0,2.0,78,0.00,,,0.00,633,Wunderground v.1.15,2013-09-07 15:04:00,
2013-09-07 10:14:00,79.5,72.0,30.11,SSE,162,1.0,1.0,78,0.00,,,0.00,666,Wunderground v.1.15,2013-09-07 15:14:00,
2013-09-07 10:23:00,80.1,72.2,30.11,SSE,161,3.0,3.0,77,0.00,,,0.00,689,Wunderground v.1.15,2013-09-07 15:23:00,
2013-09-07 10:29:00,80.2,72.3,30.11,SSE,167,2.0,3.0,77,0.00,,,0.00,701,Wunderground v.1.15,2013-09-07 15:29:00,
2013-09-07 10:38:00,80.5,72.2,30.11,SE,127,3.0,3.0,76,0.00,,,0.00,726,Wunderground v.1.15,2013-09-07 15:38:00,
2013-09-07 10:44:00,81.0,72.3,30.11,East,96,2.0,2.0,75,0.00,,,0.00,737,Wunderground v.1.15,2013-09-07 15:44:00,
2013-09-07 10:54:00,81.8,73.1,30.11,West,274,1.0,1.0,75,0.00,,,0.00,747,Wunderground v.1.15,2013-09-07 15:54:00,
2013-09-07 11:03:00,82.0,72.9,30.11,WSW,243,3.0,3.0,74,0.00,,,0.00,777,Wunderground v.1.15,2013-09-07 16:03:00,
2013-09-07 11:14:00,82.0,72.1,30.10,ESE,112,2.0,2.0,72,0.00,,,0.00,805,Wunderground v.1.15,2013-09-07 16:14:00,
2013-09-07 11:19:00,82.0,71.7,30.10,SE,124,2.0,2.0,71,0.00,,,0.00,830,Wunderground v.1.15,2013-09-07 16:19:00,
2013-09-07 11:28:00,82.5,72.1,30.10,ESE,118,3.0,4.0,71,0.00,,,0.00,872,Wunderground v.1.15,2013-09-07 16:28:00,
2013-09-07 11:34:00,82.9,73.4,30.10,ESE,111,2.0,2.0,73,0.00,,,0.00,886,Wunderground v.1.15,2013-09-07 16:34:00,
2013-09-07 11:44:00,82.7,72.3,30.10,SW,224,1.0,1.0,71,0.00,,,0.00,647,Wunderground v.1.15,2013-09-07 16:44:00,
2013-09-07 11:54:00,83.3,73.3,30.09,SW,229,2.0,4.0,72,0.00,,,0.00,990,Wunderground v.1.15,2013-09-07 16:54:00,
2013-09-07 12:04:00,83.3,72.5,30.09,South,183,2.0,2.0,70,0.00,,,0.00,1018,Wunderground v.1.15,2013-09-07 17:04:00,
2013-09-07 12:14:00,83.3,71.2,30.09,ESE,119,1.0,2.0,67,0.00,,,0.00,993,Wunderground v.1.15,2013-09-07 17:14:00,
2013-09-07 12:24:00,83.6,72.3,30.09,ESE,119,2.0,2.0,69,0.00,,,0.00,983,Wunderground v.1.15,2013-09-07 17:24:00,
2013-09-07 12:33:00,84.6,72.9,30.09,West,259,2.0,2.0,68,0.00,,,0.00,1009,Wunderground v.1.15,2013-09-07 17:33:00,
2013-09-07 12:39:00,84.4,71.8,30.09,SSW,212,2.0,4.0,66,0.00,,,0.00,979,Wunderground v.1.15,2013-09-07 17:39:00,
2013-09-07 12:49:00,84.1,70.1,30.08,NE,44,2.0,3.0,63,0.00,,,0.00,928,Wunderground v.1.15,2013-09-07 17:49:00,
2013-09-07 12:59:00,84.1,70.1,30.08,South,180,3.0,3.0,63,0.00,,,0.00,933,Wunderground v.1.15,2013-09-07 17:59:00,
2013-09-07 13:04:00,84.2,70.2,30.08,SW,219,2.0,3.0,63,0.00,,,0.00,946,Wunderground v.1.15,2013-09-07 18:04:00,
2013-09-07 13:14:00,83.8,69.4,30.07,ESE,103,1.0,1.0,62,0.00,,,0.00,248,Wunderground v.1.15,2013-09-07 18:14:00,
2013-09-07 13:24:00,82.4,70.8,30.07,West,263,1.0,3.0,68,0.00,,,0.00,234,Wunderground v.1.15,2013-09-07 18:24:00,
2013-09-07 13:34:00,82.0,71.2,30.07,West,263,0.0,0.0,70,0.00,,,0.00,299,Wunderground v.1.15,2013-09-07 18:34:00,
2013-09-07 13:39:00,82.7,68.8,30.07,SW,234,0.0,0.0,63,0.00,,,0.00,288,Wunderground v.1.15,2013-09-07 18:39:00,
2013-09-07 13:48:00,83.6,70.6,30.06,SW,232,0.0,0.0,65,0.00,,,0.00,930,Wunderground v.1.15,2013-09-07 18:48:00,
2013-09-07 13:54:00,84.6,68.7,30.06,SE,138,1.0,1.0,59,0.00,,,0.00,912,Wunderground v.1.15,2013-09-07 18:54:00,
2013-09-07 14:03:00,85.2,71.6,30.06,SSW,209,2.0,2.0,64,0.00,,,0.00,860,Wunderground v.1.15,2013-09-07 19:03:00,
2013-09-07 14:09:00,85.4,70.4,30.05,ENE,76,2.0,2.0,61,0.00,,,0.00,911,Wunderground v.1.15,2013-09-07 19:09:00,
2013-09-07 14:19:00,85.1,72.9,30.05,ESE,106,1.0,1.0,67,0.00,,,0.00,868,Wunderground v.1.15,2013-09-07 19:19:00,
2013-09-07 14:28:00,84.6,69.7,30.04,NNE,20,2.0,2.0,61,0.00,,,0.00,362,Wunderground v.1.15,2013-09-07 19:28:00,
2013-09-07 14:34:00,83.9,70.4,30.04,NE,53,2.0,2.0,64,0.00,,,0.00,262,Wunderground v.1.15,2013-09-07 19:34:00,
2013-09-07 14:44:00,83.0,69.6,30.04,NE,53,0.0,0.0,64,0.00,,,0.00,230,Wunderground v.1.15,2013-09-07 19:44:00,
2013-09-07 14:53:00,82.6,71.4,30.03,ESE,119,0.0,2.0,69,0.00,,,0.00,315,Wunderground v.1.15,2013-09-07 19:53:00,
2013-09-07 14:59:00,83.3,70.3,30.03,ESE,119,0.0,2.0,65,0.00,,,0.00,717,Wunderground v.1.15,2013-09-07 19:59:00,
2013-09-07 15:09:00,84.9,69.9,30.03,SE,126,1.0,1.0,61,0.00,,,0.00,742,Wunderground v.1.15,2013-09-07 20:09:00,
2013-09-07 15:18:00,85.6,72.9,30.03,SSW,203,1.0,2.0,66,0.00,,,0.00,749,Wunderground v.1.15,2013-09-07 20:18:00,
2013-09-07 15:24:00,84.4,70.9,30.03,ESE,123,1.0,1.0,64,0.00,,,0.00,339,Wunderground v.1.15,2013-09-07 20:24:00,
2013-09-07 15:34:00,84.5,70.0,30.02,East,88,1.0,1.0,62,0.00,,,0.00,258,Wunderground v.1.15,2013-09-07 20:34:00,
2013-09-07 15:43:00,84.3,70.8,30.02,East,88,0.0,0.0,64,0.00,,,0.00,603,Wunderground v.1.15,2013-09-07 20:43:00,
2013-09-07 15:49:00,84.3,71.7,30.02,East,92,1.0,1.0,66,0.00,,,0.00,163,Wunderground v.1.15,2013-09-07 20:49:00,
2013-09-07 15:59:00,83.0,72.2,30.02,SE,132,1.0,1.0,70,0.00,,,0.00,563,Wunderground v.1.15,2013-09-07 20:59:00,
2013-09-07 16:04:00,84.1,72.0,30.02,SE,137,0.0,2.0,67,0.00,,,0.00,552,Wunderground v.1.15,2013-09-07 21:04:00,
2013-09-07 16:13:00,84.6,70.6,30.01,ESE,109,2.0,2.0,63,0.00,,,0.00,489,Wunderground v.1.15,2013-09-07 21:13:00,
2013-09-07 16:19:00,84.3,71.7,30.01,East,93,2.0,2.0,66,0.00,,,0.00,295,Wunderground v.1.15,2013-09-07 21:19:00,
2013-09-07 16:28:00,84.0,70.0,30.01,SE,141,1.0,1.0,63,0.00,,,0.00,438,Wunderground v.1.15,2013-09-07 21:28:00,
2013-09-07 16:34:00,83.7,70.2,30.01,SE,126,1.0,2.0,64,0.00,,,0.00,121,Wunderground v.1.15,2013-09-07 21:34:00,
2013-09-07 16:43:00,81.7,70.5,30.01,SE,126,0.0,0.0,69,0.00,,,0.00,114,Wunderground v.1.15,2013-09-07 21:43:00,
2013-09-07 16:49:00,81.1,72.8,30.01,SE,143,0.0,0.0,76,0.00,,,0.00,127,Wunderground v.1.15,2013-09-07 21:49:00,
2013-09-07 16:59:00,80.6,73.1,30.01,SE,143,0.0,0.0,78,0.00,,,0.00,105,Wunderground v.1.15,2013-09-07 21:59:00,
2013-09-07 17:04:00,80.6,73.1,30.01,SE,143,0.0,0.0,78,0.00,,,0.00,107,Wunderground v.1.15,2013-09-07 22:04:00,
2013-09-07 17:13:00,79.7,72.6,30.01,SE,143,0.0,0.0,79,0.00,,,0.00,257,Wunderground v.1.15,2013-09-07 22:13:00,
2013-09-07 17:19:00,80.1,73.0,30.01,SE,143,0.0,0.0,79,0.00,,,0.00,250,Wunderground v.1.15,2013-09-07 22:19:00,
2013-09-07 17:28:00,80.9,73.0,30.01,SE,143,0.0,0.0,77,0.00,,,0.00,193,Wunderground v.1.15,2013-09-07 22:28:00,
2013-09-07 17:34:00,81.1,73.2,30.00,ESE,123,0.0,0.0,77,0.00,,,0.00,114,Wunderground v.1.15,2013-09-07 22:34:00,
2013-09-07 17:43:00,80.5,72.6,30.01,SE,131,0.0,0.0,77,0.00,,,0.00,102,Wunderground v.1.15,2013-09-07 22:43:00,
2013-09-07 17:49:00,80.1,73.0,30.01,SE,131,0.0,0.0,79,0.00,,,0.00,134,Wunderground v.1.15,2013-09-07 22:49:00,
2013-09-07 17:58:00,79.6,72.9,30.01,SE,131,0.0,0.0,80,0.00,,,0.00,63,Wunderground v.1.15,2013-09-07 22:58:00,
2013-09-07 18:04:00,79.1,72.4,30.01,SE,131,0.0,0.0,80,0.00,,,0.00,60,Wunderground v.1.15,2013-09-07 23:04:00,
2013-09-07 18:14:00,78.2,72.6,30.01,ESE,110,0.0,0.0,83,0.00,,,0.00,44,Wunderground v.1.15,2013-09-07 23:14:00,
2013-09-07 18:29:00,76.9,72.4,30.01,West,259,0.0,0.0,86,0.00,,,0.00,30,Wunderground v.1.15,2013-09-07 23:29:00,
2013-09-07 18:39:00,76.3,71.8,30.01,West,259,0.0,0.0,86,0.00,,,0.00,23,Wunderground v.1.15,2013-09-07 23:39:00,
2013-09-07 18:48:00,76.0,71.8,30.01,West,259,0.0,0.0,87,0.00,,,0.00,14,Wunderground v.1.15,2013-09-07 23:48:00,
2013-09-07 18:54:00,75.6,72.1,30.01,West,259,0.0,0.0,89,0.00,,,0.00,11,Wunderground v.1.15,2013-09-07 23:54:00,
2013-09-07 19:04:00,75.0,71.9,30.01,West,259,0.0,0.0,90,0.00,,,0.00,5,Wunderground v.1.15,2013-09-08 00:04:00,
2013-09-07 19:13:00,74.5,71.4,30.01,West,259,0.0,0.0,90,0.00,,,0.00,0,Wunderground v.1.15,2013-09-08 00:13:00,
2013-09-07 19:19:00,74.1,71.3,30.01,West,259,0.0,0.0,91,0.00,,,0.00,0,Wunderground v.1.15,2013-09-08 00:19:00,
2013-09-07 19:29:00,73.7,71.2,30.01,West,259,0.0,0.0,92,0.00,,,0.00,0,Wunderground v.1.15,2013-09-08 00:29:00,
2013-09-07 19:38:00,73.3,71.2,30.01,West,259,0.0,0.0,93,0.00,,,0.00,0,Wunderground v.1.15,2013-09-08 00:38:00,
2013-09-07 19:44:00,73.0,70.9,30.02,West,259,0.0,0.0,93,0.00,,,0.00,0,Wunderground v.1.15,2013-09-08 00:44:00,
2013-09-07 19:53:00,72.5,70.4,30.02,West,259,0.0,0.0,93,0.00,,,0.00,0,Wunderground v.1.15,2013-09-08 00:53:00,
2013-09-07 19:59:00,72.3,70.2,30.02,West,259,0.0,0.0,93,0.00,,,0.00,0,Wunderground v.1.15,2013-09-08 00:59:00,
2013-09-07 20:08:00,72.0,69.9,30.02,West,259,0.0,0.0,93,0.00,,,0.00,0,Wunderground v.1.15,2013-09-08 01:08:00,
2013-09-07 20:14:00,71.7,69.3,30.03,West,259,0.0,0.0,92,0.00,,,0.00,0,Wunderground v.1.15,2013-09-08 01:14:00,
2013-09-07 20:24:00,71.5,69.4,30.03,West,259,0.0,0.0,93,0.00,,,0.00,0,Wunderground v.1.15,2013-09-08 01:24:00,
2013-09-07 20:33:00,71.1,69.0,30.03,West,259,0.0,0.0,93,0.00,,,0.00,0,Wunderground v.1.15,2013-09-08 01:33:00,
2013-09-07 20:39:00,71.0,68.9,30.03,West,259,0.0,0.0,93,0.00,,,0.00,0,Wunderground v.1.15,2013-09-08 01:39:00,
2013-09-07 20:49:00,70.9,68.5,30.03,West,259,0.0,0.0,92,0.00,,,0.00,0,Wunderground v.1.15,2013-09-08 01:49:00,
2013-09-07 21:04:00,70.8,68.7,30.03,West,259,0.0,0.0,93,0.00,,,0.00,0,Wunderground v.1.15,2013-09-08 02:04:00,
2013-09-07 21:14:00,71.4,68.6,30.03,WSW,240,0.0,0.0,91,0.00,,,0.00,0,Wunderground v.1.15,2013-09-08 02:14:00,
2013-09-07 21:23:00,71.1,68.3,30.03,WSW,240,0.0,0.0,91,0.00,,,0.00,0,Wunderground v.1.15,2013-09-08 02:23:00,
2013-09-07 21:29:00,71.0,68.2,30.03,WSW,240,0.0,0.0,91,0.00,,,0.00,0,Wunderground v.1.15,2013-09-08 02:29:00,
2013-09-07 21:38:00,70.7,68.3,30.04,WSW,240,0.0,0.0,92,0.00,,,0.00,0,Wunderground v.1.15,2013-09-08 02:38:00,
2013-09-07 21:44:00,70.7,68.3,30.04,WSW,240,0.0,0.0,92,0.00,,,0.00,0,Wunderground v.1.15,2013-09-08 02:44:00,
2013-09-07 21:53:00,70.5,68.1,30.04,WSW,240,0.0,0.0,92,0.00,,,0.00,0,Wunderground v.1.15,2013-09-08 02:53:00,
2013-09-07 21:59:00,70.3,68.2,30.04,WSW,240,0.0,0.0,93,0.00,,,0.00,0,Wunderground v.1.15,2013-09-08 02:59:00,
2013-09-07 22:08:00,70.3,68.2,30.04,WSW,240,0.0,0.0,93,0.00,,,0.00,0,Wunderground v.1.15,2013-09-08 03:08:00,
2013-09-07 22:14:00,70.3,68.2,30.03,WSW,240,0.0,0.0,93,0.00,,,0.00,0,Wunderground v.1.15,2013-09-08 03:14:00,
2013-09-07 22:23:00,70.2,68.4,30.03,WSW,240,0.0,0.0,94,0.00,,,0.00,0,Wunderground v.1.15,2013-09-08 03:23:00,
2013-09-07 22:29:00,70.3,68.5,30.03,WSW,240,0.0,0.0,94,0.00,,,0.00,0,Wunderground v.1.15,2013-09-08 03:29:00,
2013-09-07 22:39:00,70.3,68.5,30.03,WSW,240,0.0,0.0,94,0.00,,,0.00,0,Wunderground v.1.15,2013-09-08 03:39:00,
2013-09-07 22:48:00,70.2,68.4,30.03,WSW,240,0.0,0.0,94,0.00,,,0.00,0,Wunderground v.1.15,2013-09-08 03:48:00,
2013-09-07 22:54:00,70.2,68.4,30.03,WSW,240,0.0,0.0,94,0.00,,,0.00,0,Wunderground v.1.15,2013-09-08 03:54:00,
2013-09-07 23:04:00,70.2,68.4,30.03,WSW,240,0.0,0.0,94,0.00,,,0.00,0,Wunderground v.1.15,2013-09-08 04:04:00,
2013-09-07 23:09:00,70.1,68.3,30.03,WSW,240,0.0,0.0,94,0.00,,,0.00,0,Wunderground v.1.15,2013-09-08 04:09:00,
2013-09-07 23:13:00,70.0,68.2,30.03,WSW,240,0.0,0.0,94,0.00,,,0.00,0,Wunderground v.1.15,2013-09-08 04:13:00,
2013-09-07 23:19:00,70.1,68.3,30.03,WSW,240,0.0,0.0,94,0.00,,,0.00,0,Wunderground v.1.15,2013-09-08 04:19:00,
2013-09-07 23:28:00,69.8,68.0,30.03,WSW,240,0.0,0.0,94,0.00,,,0.00,0,Wunderground v.1.15,2013-09-08 04:28:00,
2013-09-07 23:34:00,69.6,67.8,30.03,WSW,240,0.0,0.0,94,0.00,,,0.00,0,Wunderground v.1.15,2013-09-08 04:34:00,
2013-09-07 23:44:00,69.3,67.8,30.03,WSW,240,0.0,0.0,95,0.00,,,0.00,0,Wunderground v.1.15,2013-09-08 04:44:00,
2013-09-07 23:53:00,69.3,67.8,30.03,WSW,240,0.0,0.0,95,0.00,,,0.00,0,Wunderground v.1.15,2013-09-08 04:53:00,
2013-09-07 23:59:00,69.2,67.7,30.02,WSW,240,0.0,0.0,95,0.00,,,0.00,0,Wunderground v.1.15,2013-09-08 04:59:00,